Location: Olmeneta
(45.2333°N, 10.0167°E)
Time: 19:02:06
(UTC+00:00)

Daily predictions for brighter satellites

Satellite Brightness Start Highest point End
(mag) Time Altitude Azimuth Time Altitude Azimuth Time Altitude Azimuth
MOS 1 4.4 19:02:38 10° SSE 19:08:11 63° ENE 19:13:49 10° N
Lacrosse 5 rocket 4.2 19:09:32 10° WSW 19:10:55 11° WSW 19:12:20 10° SW
MOS 1-B Rocket 4.4 19:05:12 10° NNE 19:12:53 69° ESE 19:19:21 10° S
Meteor 2-15 Rocket 4.5 19:12:36 10° S 19:18:40 88° E 19:24:47 10° N
SJ-6B 3.1 19:15:29 10° S 19:19:19 70° WSW 19:23:16 10° NNW
SL-08 ROCKET BODY 4.3 19:19:33 10° N 19:25:29 76° E 19:31:20 10° SSE
USA 290 3.6 19:25:06 10° N 19:27:53 26° ENE 19:30:10 13° ESE
Cosmos 1842 Rocket 4.4 19:24:27 10° SSW 19:28:50 55° WNW 19:33:15 10° N
Ariane Rocket 3.0 19:23:57 10° SSE 19:29:00 88° ENE 19:34:06 10° NNW
Cosmos 2263 Rocket 4.3 19:27:12 10° WSW 19:32:09 32° NW 19:37:08 10° N
FALCON 9 DEB 3.3 19:30:21 10° WNW 19:33:19 50° SW 19:35:41 15° SE
Cosmos 1606 2.7 19:30:56 10° S 19:34:41 85° W 19:38:29 10° N
Cosmos 1844 Rocket 2.6 19:31:12 10° SSW 19:36:43 71° ESE 19:42:18 10° NNE
SPOT 1/Viking Rocket 4.3 19:36:09 13° SE 19:40:21 37° ENE 19:45:06 10° N
SL-4 R/B 2.5 19:37:36 10° WNW 19:41:56 60° SW 19:45:35 16° SE
Cosmos 1805 Rocket 3.5 19:38:54 10° N 19:43:16 76° E 19:47:34 10° SSE
Cosmos 1386 Rocket 4.4 19:39:01 10° N 19:45:03 72° E 19:51:07 10° SSE
X-37B 0.5 19:42:06 10° W 19:45:18 88° S 19:47:53 15° E
Cosmos 1354 Rocket 4.5 19:40:38 10° S 19:45:26 39° ESE 19:50:17 10° NE
ARIANE 5 R/B 3.9 19:43:08 14° ESE 19:45:48 25° ENE 19:49:21 10° N
Cosmos 1633 Rocket 3.9 19:47:38 10° N 19:51:41 35° ENE 19:54:17 19° SE
Cosmos 1745 Rocket 4.0 19:46:03 10° N 19:52:18 84° E 19:58:27 10° S
SPOT 3 Rocket 3.5 19:49:01 12° SSE 19:53:47 77° ENE 19:58:57 10° NNW
Cosmos 1437 4.5 19:54:17 14° E 19:54:17 14° E 19:55:38 10° NE
Cosmos 1709 Rocket 4.2 19:49:08 10° N 19:55:06 52° ENE 19:59:47 17° SSE
Resurs 1-3 4.3 19:51:46 10° S 19:56:03 53° W 20:00:22 10° NNW
Landsat 7 3.8 19:52:36 15° SSE 19:56:35 70° ENE 20:01:20 10° N
Cosmos 1844 3.7 19:51:12 10° SSW 19:56:56 82° ESE 20:02:39 10° NNE
Cosmos 1812 4.5 19:56:30 16° E 19:57:03 16° E 19:59:27 10° NE
Cosmos 968 Rocket 3.9 19:52:31 10° SSW 19:57:44 67° WNW 20:02:58 10° NNE
BREEZE-M DEB (TANK) 4.0 19:54:58 10° WNW 19:59:15 78° SSW 20:06:54 13° ESE
ATLAS 5 CENTAUR R/B 2.5 19:55:28 10° NNW 20:00:59 65° NE 20:05:41 19° SE
NOSS 3-3 (A) 4.3 19:56:35 10° S 20:01:48 39° ESE 20:07:37 10° NE
NOSS 3-3 (C) 4.3 19:56:41 10° S 20:01:55 39° ESE 20:07:43 10° NE
Cosmos 1328 Rocket 4.3 19:59:49 20° SE 20:02:14 35° E 20:06:16 10° NNE
Cosmos 1486 Rocket 4.3 19:59:57 10° SSW 20:05:15 72° WNW 20:10:37 10° NNE
IGS 5A 3.5 20:04:31 15° S 20:07:50 78° WSW 20:12:00 10° NNW
Meteor 1-26 Rocket 4.3 20:02:19 10° S 20:07:55 58° E 20:13:22 10° NNE
CARTOSAT-1 4.3 20:07:02 23° ESE 20:09:09 38° ENE 20:13:10 10° N
Cosmos 2315 Rocket 4.1 20:04:39 11° S 20:10:34 59° E 20:16:50 10° NNE
Cosmos 1833 Rocket 3.8 20:05:34 10° N 20:10:36 32° NE 20:14:00 18° ESE
CRYOSAT 2 4.5 20:07:53 20° SSE 20:11:15 61° E 20:16:05 10° N
S3M 4.2 20:04:57 10° SSW 20:11:19 77° W 20:17:42 10° N
BREEZE-M R/B 1.8 20:10:37 10° WSW 20:13:11 73° NNW 20:15:12 14° ENE
Cosmos 1666 4.3 20:14:00 10° NNE 20:16:41 19° ENE 20:17:21 18° E
Cosmos 1666 Rocket 3.5 20:12:57 10° N 20:17:22 80° E 20:19:58 24° SSE
Meteor 2-17 Rocket 4.4 20:14:16 10° N 20:20:28 85° E 20:25:05 19° S
Cosmos 1933 3.8 20:17:47 10° SSW 20:21:48 62° W 20:25:48 10° N
USA 245 1.9 20:23:49 69° NE 20:23:49 69° NE 20:25:57 10° N
Cosmos 783 Rocket 4.5 20:21:26 10° NNW 20:26:43 75° ENE 20:29:28 28° SSE
Cosmos 1242 Rocket 3.0 20:24:03 12° SSW 20:27:22 60° WNW 20:30:54 10° N
BREEZE M DEB (TANK) 2.8 20:28:42 10° WNW 20:33:06 43° N 20:34:07 26° ENE
Resurs 01 Rocket 2.9 20:29:42 12° SSW 20:33:28 37° W 20:37:38 10° NNW
Cosmos 773 Rocket 4.1 20:29:13 10° NNW 20:34:32 70° ENE 20:37:01 32° SE
Spot 2 Rocket 3.4 20:34:13 28° SSE 20:36:55 86° ENE 20:42:00 10° NNW
SJ 16-02 2.5 20:38:19 26° E 20:38:19 26° E 20:41:47 10° NE
OE (NEXTSAT) 4.3 20:35:29 10° W 20:38:58 81° N 20:39:58 44° E
Sich 1 4.4 20:35:36 10° NNW 20:39:32 35° W 20:43:01 13° SSW
Cosmos 2228 Rocket 4.5 20:40:06 22° E 20:40:08 22° E 20:43:32 10° NE
DELTA 2 R/B (1) 4.3 20:35:21 10° W 20:40:22 35° SSW 20:41:51 30° SSE
COSMOS 2406 3.6 20:35:38 10° NNW 20:41:10 51° ENE 20:43:43 30° ESE
Meteor 2-6 Rocket 4.3 20:41:14 32° SSE 20:43:23 51° E 20:48:40 10° NNE
Cosmos 2082 Rocket 3.4 20:38:54 10° N 20:43:50 30° NE 20:46:29 21° E
USA 306 4.3 20:40:20 10° NW 20:44:14 34° NNE 20:47:01 17° ENE
Cosmos 1782 3.2 20:43:16 20° SSW 20:45:52 61° W 20:49:50 10° N
Cosmos 1500 3.0 20:42:34 10° N 20:46:21 84° E 20:47:10 53° SSE
CZ-4C R/B 3.1 20:39:17 10° NW 20:46:27 68° NE 20:51:18 27° SE
ERS-1 Rocket 2.9 20:50:52 38° SSE 20:52:51 80° ENE 20:57:54 10° NNW
SPOT 5 2.9 20:52:52 38° SSE 20:54:49 82° ENE 21:00:05 10° NNW
H-2A R/B 3.7 20:53:29 10° NNE 20:57:35 49° E 20:57:49 48° ESE
Cosmos 1271 Rocket 3.3 21:00:22 42° E 21:00:22 42° E 21:03:59 10° NNE
Meteor 1-11 Rocket 4.3 20:55:01 10° N 21:00:46 47° ENE 21:02:44 35° ESE
Cosmos 1151 Rocket 4.1 20:58:03 15° SW 21:01:22 44° WNW 21:05:34 10° N
Cosmos 1777 Rocket 3.9 20:58:39 26° SSW 21:01:38 84° ESE 21:06:51 10° NNE
Terra 1.8 21:02:23 47° SE 21:03:39 71° ENE 21:08:24 10° N
CREW DRAGON DEMO-1 DEB 4.4 21:02:24 10° NW 21:04:38 26° N 21:04:38 26° N
Cosmos 2278 Rocket 2.1 21:05:44 34° S 21:08:12 68° ESE 21:13:49 10° NNE
USA 307 4.0 21:05:38 10° NW 21:09:42 41° NNE 21:11:26 27° ENE
Cosmos 1340 Rocket 4.5 21:10:53 10° NNE 21:14:05 22° ENE 21:14:05 22° ENE
Cosmos 1515 Rocket 3.9 21:17:35 40° SW 21:19:01 64° W 21:23:25 10° N
Cosmos 2084 3.8 21:17:53 14° SW 21:21:20 62° NW 21:25:34 10° NNE
X-37B 2.6 21:18:47 10° W 21:20:09 22° W 21:20:09 22° W
ARIANE 5 R/B 3.8 21:20:39 27° SW 21:22:07 34° W 21:26:04 10° NNW
USA 308 3.7 21:19:05 10° NW 21:23:15 47° NNE 21:24:24 37° ENE
Cosmos 1869 Rocket 3.8 21:19:34 10° N 21:23:49 52° ENE 21:23:54 52° E
Cosmos 1536 3.5 21:20:09 10° N 21:23:48 43° ENE 21:23:48 43° ENE
Meteor 1-10 Rocket 4.1 21:23:00 43° S 21:24:54 87° E 21:30:34 10° NNE
Cosmos 1943 Rocket 3.9 21:30:25 18° E 21:30:25 18° E 21:33:06 10° ENE
Cosmos 2154 Rocket 4.0 21:24:51 10° N 21:31:13 73° E 21:33:02 48° SSE
Cosmos 1812 3.9 21:31:31 32° WSW 21:32:29 38° WNW 21:36:07 10° N
ALOS 2 4.4 21:38:42 19° ENE 21:39:03 20° ENE 21:42:12 10° NNE
Cosmos 2184 Rocket 4.1 21:33:00 10° NNW 21:39:12 70° W 21:41:19 42° SSW
Cosmos 990 Rocket 4.5 21:40:01 43° E 21:40:01 43° E 21:44:40 10° NNE
Cosmos 1707 Rocket 4.5 21:42:54 37° ENE 21:42:54 37° ENE 21:46:18 10° NNE
NOSS 3-4 (A) 3.8 21:37:09 10° NW 21:44:09 80° NE 21:47:02 42° SE
NOSS 3-4 (C) 3.9 21:37:15 10° NW 21:44:16 79° NE 21:47:09 42° SE
ATLAS 5 CENTAUR R/B 3.7 21:40:34 10° WNW 21:45:29 28° WSW 21:47:13 25° SW
Cosmos 2074 Rocket 4.3 21:40:57 10° NNW 21:47:07 59° W 21:49:23 38° SSW
Cosmos 1666 4.1 21:49:00 10° NNW 21:52:11 30° W 21:52:11 30° W
Cosmos 2112 Rocket 4.4 21:47:49 10° NNW 21:53:04 52° ENE 21:53:50 48° E
Nadezhda 1 Rocket 4.0 21:51:52 46° SSW 21:53:55 81° W 22:00:13 10° N
Cosmos 1833 Rocket 3.2 21:49:19 10° NW 21:54:41 45° WSW 21:55:42 41° SW
Cosmos 1238 Rocket 4.2 21:50:48 10° N 21:56:56 47° ENE 21:57:51 44° ESE
Cosmos 1743 3.6 21:53:57 10° N 21:56:52 43° NNE 21:56:52 43° NNE
ATLAS 2AS CENTAUR R/B 3.1 21:50:27 10° NW 21:57:49 61° NE 22:00:31 38° ESE
USA 215 4.1 21:55:02 14° E 22:00:30 47° NNE 22:06:42 10° NW
Cosmos 2297 4.1 22:03:57 48° E 22:03:57 48° E 22:09:06 10° NE
USA 305 3.3 22:01:05 10° NW 22:04:41 62° NW 22:04:41 62° NW
Cosmos 2181 Rocket 4.2 22:07:22 48° ESE 22:08:00 50° E 22:13:54 10° NNE
Cosmos 158 Rocket 4.4 22:10:50 10° NNW 22:15:27 47° WSW 22:15:27 47° WSW
SJ 16-02 2.8 22:15:15 27° W 22:16:32 33° WNW 22:20:35 10° N
Cosmos 1733 Rocket 3.5 22:12:23 10° N 22:16:02 54° NE 22:16:02 54° NE
Cosmos 2228 Rocket 4.2 22:17:34 35° W 22:18:05 36° WNW 22:22:13 10° N
Meteor 1-27 Rocket 4.3 22:18:37 41° SW 22:20:19 55° WNW 22:26:06 10° N
Cosmos 1680 Rocket 3.4 22:15:57 10° NNW 22:21:18 80° WSW 22:21:27 79° SW
Cosmos 2341 Rocket 3.9 22:15:35 10° N 22:22:01 90° E 22:23:08 64° S
Cosmos 2366 rocket 4.1 22:17:06 10° N 22:23:12 60° ENE 22:24:07 54° ESE
Cosmos 1937 Rocket 3.7 22:24:06 58° ENE 22:24:06 58° ENE 22:28:41 10° NNE
USA 306 3.9 22:20:13 10° WNW 22:23:05 41° WNW 22:23:05 41° WNW
Cosmos 1818 4.3 22:21:10 10° NNW 22:26:29 48° NE 22:27:40 41° E
Cosmos 967 Rocket 4.4 22:27:43 64° SE 22:27:57 65° ESE 22:34:11 10° NE
Cosmos 2082 Rocket 2.6 22:22:44 10° NW 22:28:07 47° WSW 22:28:19 47° WSW
CZ-4C R/B 3.9 22:28:14 10° NW 22:34:56 35° WSW 22:36:28 33° SW
Gbstr 26 Del rocket 4.5 22:28:32 10° WNW 22:35:43 58° NNE 22:40:00 20° E
Cosmos 858 Rocket 4.5 22:37:14 74° ENE 22:37:14 74° ENE 22:42:09 10° NNE
Meteor 1-19 Rocket 4.0 22:40:48 80° E 22:40:48 80° E 22:46:13 10° NNE
Cosmos 2218 Rocket 3.9 22:34:57 10° N 22:41:16 83° E 22:42:06 69° SSE
Terra 4.1 22:41:15 14° W 22:41:54 14° W 22:44:22 10° WNW
Okean 1 4.3 22:46:34 45° NNW 22:46:34 45° NNW 22:49:30 10° N
Cosmos 489 Rocket 4.4 22:42:15 10° NNW 22:48:30 76° ENE 22:49:22 65° SE
Cosmos 1461 4.5 22:53:28 31° ENE 22:53:28 31° ENE 22:56:11 10° NE
Cosmos 2278 Rocket 4.2 22:48:21 10° W 22:52:48 23° NW 22:57:17 10° N
Cosmos 1862 Rocket 4.2 22:57:00 51° NNW 22:57:00 51° NNW 23:00:32 10° N
Cosmos 1898 Rocket 4.1 22:57:39 47° W 22:58:24 50° WNW 23:03:35 10° NNE
Nadezhda 3 Rocket 4.4 23:02:11 47° ESE 23:02:47 48° E 23:08:44 10° NNE
Cosmos 2369 Rocket 2.4 23:03:27 55° E 23:03:27 55° E 23:08:34 10° NNE
COBE Rocket 4.0 23:07:04 76° NW 23:07:04 76° NW 23:11:53 10° NNW
RESURS DK-1 4.0 23:06:10 10° N 23:09:48 28° NE 23:09:53 28° NE
Meteor 2-9 Rocket 4.4 23:04:43 10° NNW 23:10:25 58° W 23:10:35 58° WSW
SL-8 Rocket 4.4 23:04:42 10° NNW 23:10:47 51° W 23:11:34 48° WSW
Cosmos 1943 Rocket 2.2 23:11:55 64° W 23:12:26 68° WNW 23:18:02 10° NNE
Cosmos 1975 4.1 23:09:37 10° NNW 23:12:12 36° NW 23:12:12 36° NW
Cosmos 2084 Rocket 4.4 23:10:21 10° NW 23:13:20 44° NW 23:13:20 44° NW
ALOS 2 3.7 23:16:05 38° WNW 23:16:05 38° WNW 23:19:18 10° NNW
Cosmos 1867 4.4 23:18:57 39° E 23:18:57 39° E 23:23:09 10° NE
SL-08 R/B 4.3 23:12:44 10° N 23:18:58 89° W 23:19:37 74° S
Cosmos 1607 4.3 23:19:25 49° ESE 23:19:25 49° ESE 23:25:34 10° NE
DNEPR-1 R/B 4.3 23:19:56 62° W 23:20:33 67° NW 23:25:32 10° NNE
Meteor 2-4 Rocket 3.6 23:20:31 79° SW 23:20:48 82° W 23:26:31 10° N
Cosmos 44 4.1 23:16:33 10° NW 23:20:48 45° W 23:20:48 45° W
Cosmos 2263 4.4 23:22:38 59° ESE 23:22:38 59° ESE 23:28:09 10° NNE
Okean 1-7 3.7 23:30:15 51° N 23:30:15 51° N 23:33:32 10° N
Cosmos 372 Rocket 4.1 23:30:36 62° WNW 23:30:36 62° WNW 23:35:39 10° NNE
ATLAS CENTAUR R/B 3.7 23:33:01 14° ENE 23:33:01 14° ENE 23:33:48 10° ENE
Cosmos 1125 Rocket 4.0 23:35:51 49° E 23:35:51 49° E 23:40:29 10° NNE
Sich 1 Rocket 4.5 23:31:27 10° N 23:35:34 44° ENE 23:35:34 44° ENE
SeaSat 1 2.4 23:33:32 10° NNE 23:38:19 79° NNW 23:38:19 79° NNW
Cosmos 1656 Rocket 3.6 23:39:04 68° E 23:39:04 68° E 23:44:22 10° NNE
Cosmos 2242 Rocket 4.3 23:40:22 50° NW 23:40:22 50° NW 23:44:01 10° N
Cosmos 494 Rocket 4.2 23:34:45 10° NNW 23:39:55 60° ENE 23:40:13 59° E
USA 215 3.1 23:42:21 63° S 23:43:18 72° SW 23:49:52 10° NW
Cosmos 2239 Rocket 4.4 23:37:41 10° N 23:44:01 89° E 23:44:52 69° S
Cosmos 1833 4.2 23:41:02 10° NNW 23:46:49 75° ENE 23:47:33 65° ESE
ATLAS 2AS CENTAUR R/B 3.6 23:42:05 10° NW 23:47:56 32° WSW 23:47:56 32° WSW
CZ-2D R/B 3.9 23:48:56 10° NE 23:52:55 21° E 23:53:55 20° ESE
